カタログに戻る

QIANFAN-79

運用中通信PO
NORAD 63165·PAYLOAD·🇨🇳 China

打ち上げ Mar 11, 2025 から Wenchang Space Launch Site

Loading…

次のパス (今後24時間)

TLE

最新Source: Space-Track

元期: Sep 14, 2026, 21:31 UTC

1 63165U 25046G   26257.89716550  .00000022  00000-0  15140-4 0  9990
2 63165  88.9654 291.4375 0016288  55.5760 304.6928 13.51021089 84663

AllMySatでQIANFAN-79をリアルタイム追跡

Download on the App Store